Location: Elstree
(51.6403°N, 0.2969°W)
Time: 19:05:41
(UTC+00:00)

ERS-2 - Pass Details

Date: 03 March 2021
Orbit: 492 x 496 km, 98.6° (Epoch: 17 April)

Event Time Altitude Azimuth Distance (km) Brightness Sun altitude
Rises 19:55:16 0° 6° (N) 2,597 5.9 -20.8°
Reaches altitude 10° 19:57:33 10° 354° (N) 1,710 5.1 -21.1°
Maximum altitude 20:00:40 27° 296° (WNW) 990 4.3 -21.6°
Drops below altitude 10° 20:03:47 10° 238° (WSW) 1,699 5.3 -22.0°
Sets 20:06:03 0° 226° (SW) 2,578 6.1 -22.4°
